[[{"header":{"parameterUnit":"m.s-1","parameterCategory":1,"la1":30.2991,"la2":30.254,"lo1":-89.0895,"lo2":-89.0444,"dy":0.0017,"dx":0.0017,"nx":28,"ny":28,"refTime":"2025-06-13T21:00:00:Z","depth":0,"parameterNumber":2,"parameterNumberName":"U-component_of_WINDS"},"data":[0,0,0,0,0,0,0,0,0,0,0,0,0,0,0,0,0,0,0,0,0,0,0,0,0,0,0,0,0,0,0,0,0,0,0,0,0,0,0,0,0,0,0,0,0,0,0,0,0,0,0,0,0,0,0,0,0,0,2.1824,2.1825,0,2.1914,2.1915,2.1916,2.1947,2.1947,2.1946,2.1946,2.2042,2.2044,2.2047,0,0,0,0,0,0,0,0,0,0,0,0,0,2.1681,2.1683,2.1824,2.1825,2.1826,2.1914,2.1915,2.1917,2.1947,2.1947,2.1946,2.1946,2.2041,2.2044,2.2047,0,0,0,0,0,0,0,0,0,0,0,0,0,2.1754,2.1684,2.1824,2.1852,2.1855,2.1914,2.1916,2.1917,2.1947,2.1947,2.1946,2.1946,2.2039,2.2044,2.2048,2.2086,0,0,2.2061,2.2063,0,0,0,0,0,0,0,0,2.175,2.176,2.1847,2.185,2.1854,2.1919,2.19,2.1974,2.1947,2.1912,2.1946,2.1945,2.2001,2.2009,2.2027,2.209,2.2095,2.2062,2.2064,2.2066,2.2067,0,0,0,0,0,0,0,2.1745,2.1756,2.186,2.1848,2.1853,2.1861,2.1871,2.1914,2.1959,2.1916,2.1918,2.1928,2.2003,2.2023,2.203,2.2096,2.2061,2.2065,2.2068,2.207,2.2195,2.2196,0,0,0,0,0,0,2.1735,2.1751,2.1857,2.1863,2.18,2.1864,2.1875,2.1899,2.1959,2.1967,2.1928,2.1929,2.2016,2.2024,2.2033,2.2081,2.2066,2.207,2.2073,2.2195,2.2196,2.2196,0,0,0,0,0,0,2.1732,2.1744,2.1853,2.1808,2.1822,2.1867,2.1893,2.1901,2.192,2.1968,2.1977,2.194,2.2016,2.2027,2.2072,2.2085,2.2072,2.2076,2.2194,2.2195,2.2196,2.2178,0,0,0,0,0,0,2.1727,2.1743,2.1757,2.1808,2.1825,2.189,2.1894,2.1903,2.1927,2.1929,2.1981,2.199,2.2016,2.2066,2.2077,2.2091,2.2079,2.2193,2.2194,2.2196,2.2178,2.2179,2.2179,0,0,0,0,0,2.1722,2.1749,2.1757,2.177,2.1843,2.1891,2.1901,2.193,2.1928,2.1943,2.1974,2.1988,2.2082,2.207,2.2083,2.2098,2.2192,2.2194,2.2196,2.2178,2.2178,2.2179,0,0,0,0,0,0,2.1699,2.1756,2.1766,2.181,2.1845,2.1896,2.1916,2.193,2.1967,2.1967,2.2003,2.2014,2.2057,2.2083,2.2068,2.2139,2.2138,2.2142,2.212,2.2121,2.2122,2.2115,2.2083,0,0,0,0,0,2.1699,2.1732,2.178,2.1814,2.1831,2.187,2.1892,2.1912,2.195,2.1965,2.2,2.2037,2.2076,2.21,2.2138,2.2182,2.2194,2.2199,2.22,2.22,2.2203,2.2229,2.2231,2.2202,2.2202,2.2202,0,0,2.1699,2.1734,2.1753,2.1811,2.184,2.1874,2.1883,2.1919,2.1945,2.1971,2.2016,2.2043,2.2087,2.2132,2.2153,2.2155,2.2214,2.2202,2.2202,2.2205,2.2231,2.2233,2.2236,2.2203,2.2203,2.2203,0,0,2.1717,2.1747,2.1778,2.1808,2.1852,2.1878,2.1885,2.1934,2.1953,2.1998,2.2018,2.2051,2.2115,2.2146,2.217,2.22,2.2214,2.2212,2.2215,2.2239,2.2242,2.2244,2.2254,2.2258,2.2215,2.2215,2.2215,0,2.1712,2.1763,2.1793,2.1828,2.1853,2.1877,2.191,2.1937,2.1992,2.2009,2.2009,2.2091,2.2123,2.2175,2.2182,2.2201,2.2212,2.2205,2.2239,2.2241,2.2244,2.2254,2.2258,2.2214,2.2214,2.2214,2.2214,0,2.1755,2.179,2.1811,2.1862,2.1889,2.1923,2.1958,2.1983,2.2,2.2026,2.2072,2.2111,2.2156,2.2171,2.2188,2.2226,2.2225,2.2231,2.2232,2.2245,2.2256,2.226,2.2213,2.2213,2.2213,2.2214,0,0,2.176,2.1827,2.1834,2.1858,2.1909,2.1937,2.1972,2.2016,2.2036,2.2074,2.2104,2.2159,2.2165,2.2192,2.2214,2.2235,2.2256,2.2239,2.2241,2.2241,2.23,2.2294,2.2298,2.2266,2.2267,2.2267,2.2296,0,2.1784,2.1847,2.1875,2.1925,2.1958,2.1982,2.2013,2.2048,2.2073,2.2106,2.2135,2.2173,2.2178,2.2195,2.2217,2.2249,2.2268,2.2247,2.2295,2.2296,2.2283,2.2304,2.2298,2.2323,2.23,2.2301,2.2302,0,2.1821,2.1857,2.191,2.1957,2.1972,2.1999,2.2042,2.2072,2.2113,2.213,2.2161,2.2181,2.222,2.2217,2.2271,2.2256,2.2278,2.2296,2.2298,2.2303,2.2299,2.231,2.2332,2.2336,2.2308,2.2308,2.2307,0,2.1819,2.1881,2.1921,2.194,2.1996,2.2015,2.2039,2.2079,2.2104,2.2142,2.2158,2.22,2.2223,2.2256,2.2287,2.2283,2.2338,2.2339,2.2354,2.2353,2.2364,2.2363,2.239,2.2379,2.2379,2.2379,2.2379,0,2.1843,2.1874,2.1921,2.1945,2.1981,2.2014,2.2049,2.2075,2.2111,2.2142,2.2166,2.2194,2.2234,2.2268,2.2293,2.2334,2.2344,2.236,2.2366,2.2357,2.2355,2.2372,2.2371,2.238,2.2379,2.2379,2.2379,0,2.1846,2.1879,2.1924,2.1973,2.1986,2.2011,2.2053,2.2078,2.2105,2.2143,2.2154,2.2197,2.2238,2.2272,2.2327,2.2344,2.2386,2.2394,2.2372,2.2375,2.2388,2.2386,2.2426,2.2433,2.2417,2.2417,2.2417,0,2.1859,2.1884,2.1935,2.1957,2.1981,2.2016,2.2041,2.2074,2.2099,2.2148,2.2167,2.221,2.2245,2.231,2.2346,2.2388,2.2396,2.2408,2.2403,2.2393,2.2396,2.2394,2.2397,2.2408,2.2408,2.2408,2.2408,0,2.1878,2.1893,2.1928,2.1968,2.1997,2.2031,2.2065,2.2082,2.2122,2.2149,2.2191,2.2219,2.2274,2.2316,2.2361,2.2388,2.2405,2.2409,2.2415,2.2406,2.2392,2.24,2.2372,2.2408,2.2408,2.2408,2.2408,2.2408,2.1887,2.191,2.195,2.1988,2.2017,2.2049,2.2074,2.2104,2.2139,2.2186,2.2203,2.2246,2.2287,2.235,2.2376,2.2411,2.2413,2.2421,2.2423,2.2425,2.2423,2.2387,2.2419,2.2419,2.2419,2.2419,2.2419,0,2.1907,2.1934,2.1969,2.2015,2.2045,2.2058,2.2097,2.2121,2.2158,2.2194,2.2229,2.2277,2.2318,2.2357,2.24,2.242,2.2429,2.243,2.2429,2.2435,2.2419,2.2409,2.2423,2.2423,2.2423,2.2423,2.2422,2.2422,2.1921,2.1961,2.198,2.2035,2.2062,2.2103,2.2124,2.2153,2.2182,2.2234,2.2268,2.2293,2.2331,2.2377,2.2415,2.2426,2.2441,2.244,2.2453,2.2437,2.2436,2.2435,2.2427,2.2443,2.2443,2.2466,2.2466,2.2466]},{"header":{"parameterUnit":"m.s-1","parameterCategory":1,"la1":30.2991,"la2":30.254,"lo1":-89.0895,"lo2":-89.0444,"dy":0.0017,"dx":0.0017,"nx":28,"ny":28,"refTime":"2025-06-13T21:00:00:Z","depth":0,"parameterNumber":3,"parameterNumberName":"V-component_of_WINDS"},"data":[0,0,0,0,0,0,0,0,0,0,0,0,0,0,0,0,0,0,0,0,0,0,0,0,0,0,0,0,0,0,0,0,0,0,0,0,0,0,0,0,0,0,0,0,0,0,0,0,0,0,0,0,0,0,0,0,0,0,1.6396,1.6395,0,1.637,1.637,1.637,1.6338,1.6338,1.6337,1.6337,1.6311,1.631,1.631,0,0,0,0,0,0,0,0,0,0,0,0,0,1.6416,1.6415,1.6396,1.6395,1.6395,1.6371,1.637,1.637,1.6338,1.6338,1.6337,1.6336,1.6311,1.631,1.631,0,0,0,0,0,0,0,0,0,0,0,0,0,1.64,1.6415,1.6396,1.6376,1.6374,1.6371,1.637,1.637,1.6338,1.6338,1.6337,1.6336,1.6311,1.631,1.631,1.6323,0,0,1.6309,1.6309,0,0,0,0,0,0,0,0,1.6401,1.64,1.6379,1.6378,1.6375,1.6357,1.6368,1.6354,1.6338,1.6352,1.6337,1.6336,1.6327,1.6325,1.6322,1.6322,1.6321,1.6309,1.6309,1.6309,1.6309,0,0,0,0,0,0,0,1.6402,1.6401,1.6386,1.6379,1.6377,1.6369,1.6366,1.6365,1.6344,1.6351,1.6348,1.6346,1.6325,1.6322,1.6321,1.6321,1.6309,1.6309,1.6309,1.6308,1.6329,1.633,0,0,0,0,0,0,1.6406,1.6402,1.6386,1.6385,1.6387,1.6369,1.6365,1.6363,1.6344,1.634,1.6347,1.6344,1.6323,1.6321,1.632,1.6333,1.6309,1.6308,1.6308,1.6328,1.6329,1.633,0,0,0,0,0,0,1.6407,1.6405,1.6387,1.6393,1.639,1.6369,1.6367,1.6363,1.636,1.6341,1.6337,1.6347,1.6322,1.632,1.6322,1.6332,1.6308,1.6308,1.6327,1.6329,1.633,1.636,0,0,0,0,0,0,1.6408,1.6406,1.6411,1.6393,1.639,1.6391,1.6368,1.6363,1.636,1.6357,1.634,1.6337,1.6322,1.6323,1.6322,1.6331,1.6308,1.6327,1.6328,1.6329,1.6358,1.6362,1.6366,0,0,0,0,0,1.6409,1.6421,1.6411,1.641,1.6396,1.6391,1.6389,1.6372,1.6361,1.6365,1.6352,1.6337,1.6331,1.6324,1.6322,1.6331,1.6326,1.6328,1.6329,1.6357,1.6361,1.6365,0,0,0,0,0,0,1.644,1.6418,1.6407,1.6414,1.6405,1.6386,1.6391,1.6378,1.6372,1.6369,1.6348,1.6344,1.6348,1.634,1.6332,1.6342,1.6326,1.6328,1.6347,1.6352,1.6355,1.6357,1.6307,0,0,0,0,0,1.6448,1.6447,1.6427,1.6435,1.6431,1.6412,1.641,1.6397,1.6387,1.6382,1.637,1.636,1.6356,1.6353,1.6348,1.6357,1.6352,1.6362,1.6366,1.6369,1.637,1.6373,1.6377,1.6336,1.6336,1.6335,0,0,1.6464,1.6452,1.6452,1.6441,1.6432,1.6431,1.6409,1.6409,1.6407,1.6382,1.6383,1.6374,1.6361,1.6366,1.6368,1.6359,1.6381,1.6371,1.6374,1.6373,1.6375,1.6379,1.6382,1.6337,1.6336,1.6336,0,0,1.6492,1.6483,1.6488,1.648,1.6467,1.6454,1.6456,1.6439,1.6431,1.6432,1.6413,1.6411,1.6404,1.6396,1.639,1.6415,1.64,1.6414,1.6433,1.6436,1.6439,1.6442,1.6449,1.6452,1.6415,1.6416,1.6416,0,1.6514,1.6511,1.6493,1.6493,1.6489,1.6466,1.647,1.6463,1.6449,1.6446,1.6437,1.6427,1.6418,1.642,1.6426,1.6423,1.6423,1.6415,1.644,1.6443,1.6445,1.6452,1.6455,1.6417,1.6417,1.6417,1.6417,0,1.6538,1.6536,1.6542,1.6529,1.6525,1.6527,1.6509,1.6507,1.6494,1.6483,1.6483,1.647,1.6462,1.6461,1.6449,1.6462,1.6456,1.6444,1.6427,1.6451,1.6457,1.646,1.642,1.6419,1.6419,1.6418,0,0,1.6585,1.6561,1.6564,1.6557,1.6541,1.6539,1.6541,1.6532,1.653,1.6522,1.6522,1.6516,1.6504,1.6498,1.6485,1.6488,1.6507,1.6475,1.6474,1.648,1.6518,1.6527,1.653,1.6497,1.6497,1.6498,1.6519,0,1.661,1.6611,1.6594,1.6599,1.6597,1.6575,1.6576,1.6566,1.6555,1.6551,1.6538,1.6534,1.652,1.6516,1.6517,1.6504,1.6514,1.6502,1.6496,1.6496,1.6499,1.6534,1.6543,1.6563,1.6521,1.6521,1.6522,0,1.6638,1.6631,1.6636,1.6619,1.6617,1.6619,1.6609,1.6606,1.6594,1.6585,1.6579,1.6564,1.6563,1.6548,1.6546,1.6539,1.6535,1.6528,1.6528,1.6526,1.651,1.6532,1.657,1.6572,1.6525,1.6525,1.6525,0,1.6671,1.6662,1.6664,1.6659,1.664,1.6641,1.6633,1.662,1.6615,1.6607,1.6604,1.6596,1.6591,1.6585,1.6567,1.6558,1.6567,1.6551,1.656,1.656,1.6562,1.6562,1.6599,1.6561,1.6561,1.6561,1.6561,0,1.67,1.6703,1.6678,1.6679,1.6683,1.6663,1.6667,1.6656,1.6645,1.6643,1.6624,1.6622,1.66,1.6596,1.6582,1.6582,1.6581,1.6573,1.6569,1.6574,1.6575,1.6571,1.6569,1.6562,1.6562,1.6562,1.6562,0,1.6736,1.672,1.672,1.6701,1.6697,1.67,1.6684,1.6683,1.6671,1.6669,1.6667,1.6647,1.6641,1.6624,1.6613,1.6604,1.6608,1.6601,1.6612,1.6609,1.6619,1.6618,1.6653,1.6657,1.6618,1.6618,1.6619,0,1.6755,1.6758,1.6739,1.6736,1.6729,1.6725,1.6721,1.6701,1.6697,1.6683,1.6685,1.6677,1.667,1.6661,1.6646,1.6637,1.663,1.6643,1.6629,1.6633,1.6629,1.6629,1.6628,1.6646,1.6647,1.6647,1.6647,0,1.679,1.6782,1.6776,1.6768,1.6763,1.6755,1.6746,1.6745,1.6723,1.672,1.6713,1.6708,1.6697,1.6689,1.6678,1.6669,1.6654,1.6652,1.6653,1.6658,1.6664,1.666,1.662,1.6651,1.6651,1.6651,1.665,1.665,1.6818,1.6819,1.6805,1.68,1.6791,1.6783,1.6782,1.6769,1.6763,1.6753,1.6742,1.6737,1.6723,1.6707,1.6699,1.6694,1.6686,1.6689,1.6689,1.669,1.6692,1.6665,1.6692,1.6692,1.6692,1.6692,1.6692,0,1.6851,1.6841,1.6836,1.6824,1.682,1.6806,1.6796,1.6792,1.6788,1.6777,1.6771,1.6763,1.6755,1.6739,1.673,1.6729,1.6722,1.6727,1.6726,1.6724,1.67,1.6699,1.6733,1.6733,1.6733,1.6733,1.6733,1.6733,1.6867,1.6868,1.6858,1.6853,1.6843,1.6838,1.6833,1.6825,1.6816,1.6809,1.6802,1.6792,1.6779,1.6768,1.676,1.6756,1.6753,1.676,1.6753,1.673,1.6726,1.6723,1.6722,1.676,1.676,1.6778,1.6778,1.6778]}]]